Date String (YYYY-MM-DD hh:mm:ss) UTC,Instrument flags,Ambient pressure (hPa),Sample flow (lpm),Bypass flow (lpm),Sample temperature (°C),Ambient temperature (°C),ASC tube jacket temperature (°C),LED temperature (°C),Box temperature (°C),Sample RH (%),Span deviation,Mass concentration (μg/m³),Mass concentration (μg/m³),Mass concentration (μg/m³)
DateTimeUTC,F1_M11,P_M11,Q1_M11,Q2_M11,T1_M11,T2_M11,T3_M11,T4_M11,T5_M11,U1_M11,ZSPAN_M11,X0_M11,X2_M11,X1_M11
2022-03-17 06:00:00,,0823.4,5.00,0.00,24.2,23.4,00.0,33.2,26.1,18.9,0000.0,0002.86,0001.44,0000.88
2022-03-17 06:01:00,,0823.4,5.00,0.00,24.2,23.4,00.0,33.2,26.1,18.9,0000.0,0002.68,0001.43,0000.88
2022-03-17 06:02:00,,0823.4,4.99,0.00,24.2,23.4,00.0,33.2,26.0,18.9,0000.0,0002.61,0001.41,0000.88
2022-03-17 06:03:00,,0823.4,5.01,0.00,24.2,23.4,00.0,33.2,26.0,18.9,0000.0,0002.52,0001.37,0000.88
2022-03-17 06:04:00,,0823.4,4.99,0.00,24.2,23.4,00.0,33.2,26.0,18.9,0000.0,0002.58,0001.40,0000.86
2022-03-17 06:05:00,,0823.4,5.01,0.00,24.2,23.4,00.0,33.2,26.0,18.9,0000.0,0002.66,0001.41,0000.84
2022-03-17 06:06:00,,0823.3,5.00,0.00,24.2,23.4,00.0,33.2,26.0,18.9,0000.0,0002.73,0001.40,0000.82
2022-03-17 06:07:00,,0823.4,5.00,0.00,24.2,23.4,00.0,33.2,26.0,18.8,0000.0,0002.62,0001.37,0000.81
2022-03-17 06:08:00,,0823.3,5.00,0.00,24.2,23.4,00.0,33.2,26.0,18.8,0000.0,0002.51,0001.34,0000.81
2022-03-17 06:09:00,,0823.4,5.00,0.00,24.2,23.4,00.0,33.2,26.0,18.8,0000.0,0002.47,0001.32,0000.80
2022-03-17 06:10:00,,0823.3,5.00,0.00,24.1,23.4,00.0,33.2,26.0,18.8,0000.0,0002.33,0001.25,0000.78
2022-03-17 06:11:00,,0823.4,5.01,0.00,24.1,23.3,00.0,33.1,26.0,18.8,0000.0,0002.29,0001.22,0000.77
2022-03-17 06:12:00,,0823.4,4.99,0.00,24.1,23.3,00.0,33.1,25.9,18.8,0000.0,0002.30,0001.20,0000.76
2022-03-17 06:13:00,,0823.4,5.00,0.00,24.1,23.3,00.0,33.1,25.9,18.8,0000.0,0002.35,0001.21,0000.75
2022-03-17 06:14:00,,0823.3,5.01,0.00,24.1,23.3,00.0,33.1,25.9,18.8,0000.0,0002.40,0001.21,0000.74
2022-03-17 06:15:00,,0823.4,5.00,0.00,24.1,23.3,00.0,33.1,25.9,18.8,0000.0,0002.39,0001.17,0000.74
2022-03-17 06:16:00,,0823.3,4.99,0.00,24.1,23.3,00.0,33.1,25.9,18.8,0000.0,0002.24,0001.10,0000.73
2022-03-17 06:17:00,,0823.3,5.00,0.00,24.1,23.3,00.0,33.1,25.9,18.8,0000.0,0002.12,0001.09,0000.74
2022-03-17 06:18:00,,0823.3,5.00,0.00,24.1,23.3,00.0,33.1,25.9,18.8,0000.0,0002.04,0001.07,0000.74
2022-03-17 06:19:00,,0823.3,5.01,0.00,24.1,23.3,00.0,33.1,25.9,18.8,0000.0,0002.05,0001.07,0000.73
2022-03-17 06:20:00,,0823.3,4.99,0.00,24.1,23.2,00.0,33.1,25.8,18.8,0000.0,0001.92,0001.03,0000.73
2022-03-17 06:21:00,,0823.3,5.01,0.00,24.0,23.2,00.0,33.1,25.8,18.8,0000.0,0001.96,0001.08,0000.73
2022-03-17 06:22:00,,0823.2,4.99,0.00,24.0,23.2,00.0,33.1,25.8,18.8,0000.0,0001.95,0001.08,0000.73
2022-03-17 06:23:00,,0823.3,4.99,0.00,24.0,23.2,00.0,33.1,25.7,18.8,0000.0,0001.88,0001.06,0000.73
2022-03-17 06:24:00,,0823.3,5.01,0.00,24.0,23.2,00.0,33.0,25.8,18.8,0000.0,0001.90,0001.07,0000.73
2022-03-17 06:25:00,,0823.3,5.00,0.00,24.0,23.2,00.0,33.0,25.8,18.8,0000.0,0001.91,0001.09,0000.74
2022-03-17 06:26:00,,0823.3,4.99,0.00,24.0,23.2,00.0,33.0,25.7,18.8,0000.0,0001.84,0001.09,0000.73
2022-03-17 06:27:00,,0823.3,5.00,0.00,24.0,23.2,00.0,33.0,25.7,18.8,0000.0,0001.82,0001.09,0000.75
2022-03-17 06:28:00,,0823.3,4.98,0.00,24.0,23.2,00.0,33.0,25.7,18.8,0000.0,0001.76,0001.08,0000.75
2022-03-17 06:29:00,,0823.3,5.00,0.00,24.0,23.2,00.0,33.0,25.7,18.8,0000.0,0001.76,0001.08,0000.75
2022-03-17 06:30:00,,0823.2,5.00,0.00,24.0,23.1,00.0,33.0,25.7,18.9,0000.0,0001.78,0001.09,0000.74
2022-03-17 06:31:00,,0823.3,5.00,0.00,24.0,23.1,00.0,33.0,25.7,18.9,0000.0,0001.85,0001.12,0000.74
2022-03-17 06:32:00,,0823.3,5.01,0.00,24.0,23.1,00.0,33.0,25.7,18.9,0000.0,0001.70,0001.05,0000.73
2022-03-17 06:33:00,,0823.2,4.99,0.00,24.0,23.1,00.0,33.0,25.7,18.9,0000.0,0001.64,0001.03,0000.72
2022-03-17 06:34:00,,0823.3,5.00,0.00,24.0,23.1,00.0,33.0,25.7,19.0,0000.0,0001.66,0001.06,0000.72
2022-03-17 06:35:00,,0823.3,5.00,0.00,24.0,23.1,00.0,33.0,25.7,19.0,0000.0,0001.67,0001.07,0000.72
2022-03-17 06:36:00,,0823.3,5.01,0.00,23.9,23.1,00.0,33.0,25.7,19.0,0000.0,0001.60,0001.03,0000.72
2022-03-17 06:37:00,,0823.2,5.00,0.00,23.9,23.1,00.0,33.0,25.7,19.0,0000.0,0001.61,0001.03,0000.71
2022-03-17 06:38:00,,0823.2,4.98,0.00,23.9,23.1,00.0,33.0,25.7,19.0,0000.0,0001.62,0001.02,0000.70
2022-03-17 06:39:00,,0823.2,5.01,0.00,23.9,23.1,00.0,32.9,25.6,19.0,0000.0,0001.70,0001.05,0000.69
2022-03-17 06:40:00,,0823.2,4.99,0.00,23.9,23.1,00.0,32.9,25.7,19.0,0000.0,0001.73,0001.05,0000.69
2022-03-17 06:41:00,,0823.2,5.02,0.00,23.9,23.1,00.0,32.9,25.6,19.0,0000.0,0001.82,0001.07,0000.70
2022-03-17 06:42:00,,0823.2,4.99,0.00,23.9,23.1,00.0,32.9,25.6,19.0,0000.0,0001.79,0001.05,0000.69
2022-03-17 06:43:00,,0823.2,5.02,0.00,23.9,23.1,00.0,32.9,25.6,19.0,0000.0,0001.79,0001.04,0000.69
2022-03-17 06:44:00,,0823.2,4.99,0.00,23.9,23.1,00.0,32.9,25.6,19.0,0000.0,0001.74,0001.02,0000.69
2022-03-17 06:45:00,,0823.3,5.01,0.00,23.9,23.0,00.0,32.9,25.6,19.0,0000.0,0001.73,0001.01,0000.70
2022-03-17 06:46:00,,0823.2,4.99,0.00,23.9,23.0,00.0,32.9,25.6,19.0,0000.0,0001.75,0001.01,0000.69
2022-03-17 06:47:00,,0823.2,5.02,0.00,23.9,23.0,00.0,32.9,25.6,19.0,0000.0,0001.84,0001.03,0000.68
2022-03-17 06:48:00,,0823.2,4.99,0.00,23.9,23.0,00.0,32.9,25.6,19.0,0000.0,0001.80,0001.02,0000.68
2022-03-17 06:49:00,,0823.2,4.99,0.00,23.9,23.0,00.0,32.9,25.6,19.0,0000.0,0001.86,0001.03,0000.68
2022-03-17 06:50:00,,0823.2,5.00,0.00,23.9,23.0,00.0,32.9,25.6,19.1,0000.0,0001.85,0001.02,0000.67
2022-03-17 06:51:00,,0823.1,5.00,0.00,23.9,23.0,00.0,32.9,25.6,19.1,0000.0,0001.87,0001.04,0000.67
2022-03-17 06:52:00,,0823.1,4.99,0.00,23.9,23.0,00.0,32.9,25.6,19.1,0000.0,0001.76,0001.00,0000.66
2022-03-17 06:53:00,,0823.1,5.00,0.00,23.9,23.0,00.0,32.9,25.6,19.1,0000.0,0001.72,0000.99,0000.66
2022-03-17 06:54:00,,0823.1,5.01,0.00,23.8,23.0,00.0,32.8,25.6,19.1,0000.0,0001.77,0001.01,0000.67
2022-03-17 06:55:00,,0823.1,4.99,0.00,23.8,23.0,00.0,32.8,25.6,19.1,0000.0,0001.82,0001.03,0000.66
2022-03-17 06:56:00,,0823.1,4.99,0.00,23.8,23.0,00.0,32.8,25.6,19.2,0000.0,0001.93,0001.06,0000.65
2022-03-17 06:57:00,,0823.1,5.01,0.00,23.8,23.0,00.0,32.8,25.6,19.2,0000.0,0001.92,0001.06,0000.66
2022-03-17 06:58:00,,0823.1,5.00,0.00,23.8,23.0,00.0,32.8,25.6,19.2,0000.0,0001.85,0001.04,0000.65
2022-03-17 06:59:00,,0823.1,5.00,0.00,23.8,23.0,00.0,32.8,25.6,19.3,0000.0,0001.97,0001.08,0000.65
